Regional Weather Roundup
Issued by NWS

Home | Current Version | Previous Version | Text Only | Print | Product List | Glossary Off
Versions: 1 2 3 4 5 6 7 8 9 10 11 12 13 14 15 16 17 18 19 20 21 22 23 24 25 26 27 28 29 30 31 32 33 34 35 36 37 38 39 40 41 42 43 44 45 46 47 48 49 50

852
ASUS43 KIND 241409
RWRIN

WEATHER ROUNDUP FOR INDIANA
NATIONAL WEATHER SERVICE INDIANAPOLIS IN
900 AM EST TUE JAN 24 2017

NOTE: "FAIR" INDICATES FEW OR NO CLOUDS BELOW 12,000 FEET WITH NO
SIGNIFICANT WEATHER AND/OR OBSTRUCTIONS TO VISIBILITY.

* - STATION DOES NOT REPORT WEATHER SUCH AS PRECIPITATION OR FOG.

+ - STATION NOT QUALITY CONTROLLED BY THE NATIONAL WEATHER SERVICE.
    USE DATA WITH CAUTION...ESPECIALLY DEWPOINT AND RELATIVE
    HUMIDITY OBSERVATIONS.

INZ001>003-010>013-019-020-241500-
NORTHWEST INDIANA

CITY           SKY/WX    TMP DP  RH WIND       PRES   REMARKS
GARY /AIRPORT/ CLOUDY    39  34  81 W10       29.89R
KNOX *+        CLOUDY    36  21  55 W9        29.88R
LA PORTE +     CLOUDY    37  34  91 W9        29.88R
MICHIGAN CITY+ CLOUDY    36  36 100 W7        29.88R
MONTICELLO +   CLOUDY    37  34  88 NW5       29.88S
RENSSELAER +     N/A     37  36  93 W7        29.89S
VALPARAISO     CLOUDY    39  34  82 NW6       29.88R

$$

LMZ046-743>745-241500-
SOUTHERN LAKE MICHIGAN

STATION/POSITION TIME  TEMP    WIND        PRES    WAVE
                       AIR SEA DIR/SP/G            HT
                 (UTC) (F)     (DEG/KT/KT) (MB)    (FT)
BURNS HARBOR     1340   36     300/ 10/ 12 1012.9R

$$

INZ004-005-014>016-021>024-241500-
NORTH CENTRAL INDIANA

CITY           SKY/WX    TMP DP  RH WIND       PRES   REMARKS
ELKHART        CLOUDY    37  36  93 W7        29.84R
GOSHEN         CLOUDY    38  34  85 NW8       29.83R
LOGANSPORT +   CLOUDY    37  34  87 NW7       29.88S
PERU/GRISSOM   CLOUDY    38  35  89 NW9       29.85R
ROCHESTER +    CLOUDY    39  36  87 W7        29.87R
SOUTH BEND     CLOUDY    37  35  92 NW8       29.86R
WARSAW +       CLOUDY    37  32  81 W7        29.84R

$$

INZ006>009-017-018-025>027-241500-
NORTHEAST INDIANA

CITY           SKY/WX    TMP DP  RH WIND       PRES   REMARKS
ANGOLA *+      CLOUDY    37  28  70 NW8       29.79F
AUBURN +       CLOUDY    37  36  93 NW8       29.81S FOG
FORT WAYNE     CLOUDY    39  35  86 W9        29.83R
HUNTINGTON +   CLOUDY    38  37  96 W7        29.84R
KENDALLVILLE + CLOUDY    37  37  98 NW6       29.81S FOG

$$

INZ028-029-035-036-043>045-051>053-241500-
WEST CENTRAL INDIANA

CITY           SKY/WX    TMP DP  RH WIND       PRES   REMARKS
CRAWFORDSVL +  CLOUDY    37  37 100 NW5       29.88S
GREENCASTLE +  CLOUDY    37  32  81 NW3       29.89S
LAFAYETTE      CLOUDY    38  34  85 NW5       29.88S
TERRE HAUTE    CLOUDY    40  32  73 NW7       29.91R

$$

INZ030>032-037>040-046>048-054>057-064-065-241500-
CENTRAL INDIANA

CITY           SKY/WX    TMP DP  RH WIND       PRES   REMARKS
CP ATTERBURY + CLOUDY    39  34  81 NW9       29.89R
COLUMBUS       CLOUDY    39  37  93 NW9       29.88R
FISHERS *+     CLOUDY    37  36  93 NW5       29.87
FRANKFORT +    CLOUDY    40  37  86 N6        29.89S
GREENWOOD *+   CLOUDY    40  35  82 NW5       29.87S
INDIANAPOLIS   CLOUDY    40  33  76 NW12      29.87S
-EAGLE CREEK   CLOUDY    40  34  79 NW9       29.86S
KOKOMO +       CLOUDY    38  33  82 NW10      29.87R
MARION +       CLOUDY    37  36  93 NW9       29.86R FOG
MT COMFORT *+  CLOUDY    37  34  87 NW8       29.87S
SHELBYVILLE    CLOUDY    40  34  79 NW10      29.86R
ZIONSVILLE +   CLOUDY    37  33  85 NW7       29.87S

$$

INZ033-034-041-042-049-050-058-059-241500-
EAST CENTRAL INDIANA

CITY           SKY/WX    TMP DP  RH WIND       PRES   REMARKS
MUNCIE         CLOUDY    40  36  86 W13       29.84S

$$

INZ060-061-067>069-081>083-085>088-241500-
SOUTHWEST INDIANA

CITY           SKY/WX    TMP DP  RH WIND       PRES   REMARKS
EVANSVILLE     CLOUDY    41  33  73 W3        29.94R
HUNTINGBURG *+ CLOUDY    40  34  79 NW3       29.92S
WASHINGTON +   CLOUDY    40  35  81 NW5       29.91F

$$

INZ062-063-066-070>080-084-089>092-241500-
SOUTH CENTRAL AND SOUTHEAST INDIANA

CITY           SKY/WX    TMP DP  RH WIND       PRES   REMARKS
BEDFORD +      CLOUDY    39  32  75 W3        29.89
BLOOMINGTON    CLOUDY    40  32  73 NW6       29.89R
MADISON *+     CLOUDY    39  36  87 W8        29.90R
NORTH VERNON + CLOUDY   N/A N/A N/A W7        29.87R
SEYMOUR +      CLOUDY    41  34  75 W8        29.89R

$$





USA.gov is the U.S. government's official web portal to all federal, state and local government web resources and services.